| time (UTC) | temp C | wind direction | speed KPH | gust KPH | rain 1hr cm | rain 24hr cm | rain mn cm | humidity % | barometer mb |
| 20260906034827 | 13 | 180 | 0.0 | 0.0 | 0.05 | 0.25 | 0.05 | 86 | 1016.0 |
| 20260906033327 | 13 | 202 | 0.0 | 0.0 | 0.00 | 0.20 | 0.00 | 86 | 1016.0 |
| 20260906031827 | 13 | 315 | 0.0 | 0.0 | 0.00 | 0.20 | 0.00 | 85 | 1016.0 |
| 20260906030336 | 13 | 22 | 0.0 | 0.0 | 0.00 | 0.20 | 0.00 | 85 | 1016.0 |
| 20260906024827 | 13 | 0 | 0.0 | 0.0 | 0.00 | 0.20 | 0.00 | 85 | 1016.0 |
| 20260906023325 | 13 | 292 | 1.6 | 6.4 | 0.00 | 0.20 | 0.00 | 85 | 1016.0 |
| 20260906021827 | 13 | 202 | 0.0 | 1.6 | 0.00 | 0.20 | 0.00 | 85 | 1016.0 |
| 20260906020327 | 13 | 338 | 0.0 | 0.0 | 0.00 | 0.20 | 0.00 | 85 | 1016.0 |
| 20260906014829 | 13 | 202 | 0.0 | 0.0 | 0.00 | 0.20 | 0.00 | 85 | 1016.0 |
| 20260906013326 | 13 | 202 | 0.0 | 0.0 | 0.00 | 0.20 | 0.00 | 84 | 1016.0 |
| 20260906011827 | 13 | 292 | 0.0 | 0.0 | 0.00 | 0.20 | 0.00 | 84 | 1016.0 |
| 20260906010326 | 13 | 0 | 0.0 | 0.0 | 0.00 | 0.20 | 0.00 | 84 | 1016.0 |
| 20260906004826 | 13 | 22 | 0.0 | 3.2 | 0.00 | 0.20 | 0.00 | 84 | 1016.0 |
| 20260906003331 | 13 | 292 | 0.0 | 0.0 | 0.00 | 0.20 | 0.00 | 84 | 1016.0 |
| 20260906001826 | 13 | 202 | 0.0 | 0.0 | 0.00 | 0.20 | 0.00 | 84 | 1016.0 |
| 20260906000327 | 13 | 270 | 0.0 | 0.0 | 0.00 | 0.20 | 0.00 | 84 | 1016.0 |
| 20260905234826 | 13 | 315 | 0.0 | 0.0 | 0.00 | 0.20 | 0.00 | 84 | 1016.0 |
| 20260905233326 | 13 | 292 | 0.0 | 0.0 | 0.00 | 0.20 | 0.00 | 84 | 1016.0 |
| 20260905231826 | 13 | 338 | 0.0 | 1.6 | 0.00 | 0.20 | 0.00 | 84 | 1016.0 |
| 20260905230327 | 13 | 248 | 0.0 | 0.0 | 0.00 | 0.20 | 0.00 | 84 | 1016.0 |
| 20260905224832 | 13 | 180 | 0.0 | 4.8 | 0.00 | 0.20 | 0.00 | 84 | 1016.0 |
| 20260905223327 | 14 | 292 | 0.0 | 0.0 | 0.00 | 0.20 | 0.00 | 84 | 1016.0 |
| 20260905221826 | 14 | 315 | 0.0 | 1.6 | 0.00 | 0.20 | 0.00 | 84 | 1016.0 |
| 20260905220326 | 14 | 292 | 0.0 | 4.8 | 0.00 | 0.20 | 0.00 | 84 | 1016.0 |
| 20260905214826 | 14 | 248 | 0.0 | 3.2 | 0.00 | 0.20 | 0.00 | 83 | 1016.0 |
| 20260905213326 | 14 | 270 | 0.0 | 4.8 | 0.00 | 0.20 | 0.00 | 83 | 1016.0 |
| 20260905211827 | 15 | 225 | 6.4 | 6.4 | 0.00 | 0.20 | 0.00 | 83 | 1016.0 |
| 20260905210326 | 15 | 248 | 0.0 | 1.6 | 0.00 | 0.20 | 0.00 | 82 | 1016.0 |
| 20260905204826 | 15 | 292 | 0.0 | 1.6 | 0.00 | 0.20 | 0.15 | 82 | 1016.0 |
| 20260905203327 | 15 | 292 | 0.0 | 0.0 | 0.00 | 0.20 | 0.15 | 82 | 1016.0 |
| 20260905201826 | 15 | 292 | 0.0 | 0.0 | 0.00 | 0.20 | 0.15 | 82 | 1016.0 |
| 20260905200328 | 15 | 292 | 0.0 | 0.0 | 0.00 | 0.20 | 0.15 | 82 | 1016.0 |
| 20260905194826 | 15 | 292 | 0.0 | 0.0 | 0.00 | 0.20 | 0.15 | 82 | 1016.0 |
| 20260905193326 | 15 | 292 | 0.0 | 0.0 | 0.00 | 0.20 | 0.15 | 82 | 1015.0 |
| 20260905191826 | 15 | 315 | 0.0 | 0.0 | 0.00 | 0.20 | 0.15 | 82 | 1015.0 |
| 20260905190326 | 16 | 225 | 0.0 | 0.0 | 0.00 | 0.20 | 0.15 | 82 | 1015.0 |
| 20260905184826 | 16 | 248 | 0.0 | 0.0 | 0.00 | 0.20 | 0.15 | 82 | 1015.0 |
| 20260905183325 | 16 | 292 | 0.0 | 0.0 | 0.00 | 0.20 | 0.15 | 81 | 1015.0 |
| 20260905181833 | 16 | 180 | 1.6 | 1.6 | 0.00 | 0.20 | 0.15 | 81 | 1015.0 |
| 20260905180325 | 16 | 248 | 0.0 | 0.0 | 0.00 | 0.20 | 0.15 | 81 | 1015.0 |
| 20260905174830 | 16 | 292 | 0.0 | 0.0 | 0.00 | 0.20 | 0.15 | 81 | 1015.0 |
| 20260905173327 | 16 | 338 | 0.0 | 1.6 | 0.00 | 0.20 | 0.15 | 81 | 1015.0 |
| 20260905171831 | 16 | 248 | 0.0 | 0.0 | 0.00 | 0.20 | 0.15 | 80 | 1014.0 |
| 20260905170327 | 17 | 292 | 0.0 | 3.2 | 0.00 | 0.20 | 0.15 | 80 | 1014.0 |
| 20260905164826 | 17 | 292 | 3.2 | 4.8 | 0.00 | 0.20 | 0.15 | 78 | 1015.0 |
| 20260905164631 | 17 | 292 | 0.0 | 4.8 | 0.00 | 0.20 | 0.15 | 78 | 1015.0 |
| 20260905163326 | 17 | 270 | 0.0 | 0.0 | 0.00 | 0.20 | 0.15 | 78 | 1014.0 |
| 20260905163132 | 17 | 292 | 0.0 | 0.0 | 0.00 | 0.20 | 0.15 | 78 | 1015.0 |
| 20260905161826 | 17 | 338 | 0.0 | 0.0 | 0.00 | 0.20 | 0.15 | 78 | 1015.0 |
| 20260905161632 | 17 | 292 | 0.0 | 0.0 | 0.00 | 0.20 | 0.15 | 78 | 1014.0 |
| 20260905160326 | 17 | 0 | 0.0 | 6.4 | 0.00 | 0.20 | 0.15 | 78 | 1015.0 |
| 20260905160132 | 17 | 315 | 1.6 | 6.4 | 0.00 | 0.20 | 0.15 | 78 | 1015.0 |
| 20260905154826 | 17 | 338 | 0.0 | 1.6 | 0.05 | 0.20 | 0.20 | 78 | 1014.0 |
| 20260905154631 | 17 | 338 | 0.0 | 1.6 | 0.05 | 0.20 | 0.20 | 78 | 1014.0 |
| 20260905153327 | 17 | 202 | 0.0 | 1.6 | 0.05 | 0.20 | 0.20 | 78 | 1014.0 |
| 20260905153135 | 17 | 135 | 0.0 | 1.6 | 0.05 | 0.20 | 0.20 | 78 | 1014.0 |
| 20260905151825 | 18 | 45 | 0.0 | 3.2 | 0.05 | 0.20 | 0.20 | 76 | 1014.0 |
| 20260905151631 | 18 | 0 | 0.0 | 3.2 | 0.05 | 0.20 | 0.20 | 76 | 1014.0 |
| 20260905150326 | 18 | 22 | 0.0 | 3.2 | 0.05 | 0.20 | 0.20 | 74 | 1013.0 |
| 20260905150132 | 18 | 0 | 0.0 | 3.2 | 0.05 | 0.20 | 0.20 | 74 | 1013.0 |
| 20260905144826 | 18 | 90 | 0.0 | 0.0 | 0.00 | 0.15 | 0.15 | 71 | 1014.0 |
| 20260905143331 | 19 | 0 | 1.6 | 1.6 | 0.00 | 0.15 | 0.15 | 68 | 1014.0 |
| 20260905143131 | 19 | 248 | 1.6 | 1.6 | 0.00 | 0.15 | 0.15 | 68 | 1014.0 |
| 20260905141826 | 21 | 0 | 0.0 | 0.0 | 0.00 | 0.15 | 0.15 | 62 | 1014.0 |
| 20260905141630 | 21 | 0 | 0.0 | 0.0 | 0.00 | 0.15 | 0.15 | 62 | 1014.0 |
| 20260905140326 | 21 | 0 | 0.0 | 4.8 | 0.00 | 0.15 | 0.15 | 62 | 1014.0 |
| 20260905140131 | 21 | 0 | 0.0 | 4.8 | 0.00 | 0.15 | 0.15 | 62 | 1014.0 |
| 20260905134826 | 21 | 0 | 4.8 | 8.0 | 0.00 | 0.15 | 0.15 | 62 | 1015.0 |
| 20260905134631 | 21 | 0 | 4.8 | 8.0 | 0.00 | 0.15 | 0.15 | 62 | 1014.0 |
| 20260905133334 | 21 | 270 | 1.6 | 6.4 | 0.00 | 0.15 | 0.15 | 62 | 1014.0 |
| 20260905133132 | 21 | 270 | 1.6 | 6.4 | 0.00 | 0.15 | 0.15 | 62 | 1014.0 |
| 20260905131826 | 22 | 22 | 0.0 | 6.4 | 0.00 | 0.15 | 0.15 | 62 | 1014.0 |
| 20260905131631 | 22 | 270 | 0.0 | 6.4 | 0.00 | 0.15 | 0.15 | 62 | 1014.0 |
| 20260905130327 | 22 | 0 | 4.8 | 4.8 | 0.05 | 0.20 | 0.20 | 62 | 1014.0 |
| 20260905130130 | 22 | 292 | 0.0 | 4.8 | 0.05 | 0.20 | 0.20 | 62 | 1014.0 |
| 20260905124826 | 22 | 270 | 0.0 | 8.0 | 0.15 | 0.20 | 0.20 | 63 | 1014.0 |
| 20260905124632 | 22 | 22 | 3.2 | 8.0 | 0.15 | 0.20 | 0.20 | 63 | 1014.0 |
| 20260905123332 | 21 | 315 | 3.2 | 6.4 | 0.15 | 0.20 | 0.20 | 65 | 1014.0 |
| 20260905123131 | 21 | 90 | 6.4 | 6.4 | 0.15 | 0.20 | 0.20 | 66 | 1014.0 |
| 20260905121827 | 21 | 270 | 3.2 | 6.4 | 0.15 | 0.20 | 0.20 | 65 | 1014.0 |
| 20260905120328 | 22 | 225 | 0.0 | 11.3 | 0.10 | 0.15 | 0.15 | 63 | 1014.0 |
| 20260905120130 | 22 | 292 | 3.2 | 11.3 | 0.10 | 0.10 | 0.10 | 62 | 1014.0 |
| 20260905114827 | 24 | 225 | 3.2 | 4.8 | 0.00 | 0.00 | 0.00 | 60 | 1014.0 |
| 20260905114631 | 24 | 112 | 0.0 | 4.8 | 0.00 | 0.00 | 0.00 | 59 | 1014.0 |
| 20260905113329 | 25 | 22 | 0.0 | 6.4 | 0.00 | 0.00 | 0.00 | 57 | 1014.0 |
| 20260905113133 | 25 | 135 | 0.0 | 6.4 | 0.00 | 0.00 | 0.00 | 57 | 1014.0 |
| 20260905111826 | 26 | 248 | 0.0 | 19.3 | 0.00 | 0.00 | 0.00 | 53 | 1013.0 |
| 20260905111631 | 26 | 248 | 0.0 | 19.3 | 0.00 | 0.00 | 0.00 | 53 | 1013.0 |
| 20260905110334 | 27 | 338 | 3.2 | 11.3 | 0.00 | 0.00 | 0.00 | 53 | 1012.0 |
| 20260905110130 | 27 | 338 | 3.2 | 11.3 | 0.00 | 0.00 | 0.00 | 53 | 1012.0 |
| 20260905104825 | 27 | 292 | 3.2 | 4.8 | 0.00 | 0.00 | 0.00 | 52 | 1012.0 |
| 20260905103332 | 28 | 90 | 0.0 | 4.8 | 0.00 | 0.00 | 0.00 | 51 | 1012.0 |
| 20260905103130 | 28 | 68 | 3.2 | 4.8 | 0.00 | 0.00 | 0.00 | 51 | 1012.0 |
| 20260905101826 | 28 | 338 | 6.4 | 6.4 | 0.00 | 0.00 | 0.00 | 48 | 1011.0 |
| 20260905101631 | 28 | 338 | 6.4 | 6.4 | 0.00 | 0.00 | 0.00 | 48 | 1011.0 |
| 20260905100331 | 28 | 248 | 4.8 | 6.4 | 0.00 | 0.00 | 0.00 | 49 | 1011.0 |
| 20260905094827 | 27 | 0 | 8.0 | 8.0 | 0.00 | 0.00 | 0.00 | 49 | 1011.0 |
| 20260905094631 | 27 | 0 | 8.0 | 8.0 | 0.00 | 0.00 | 0.00 | 51 | 1011.0 |
| 20260905093326 | 27 | 338 | 0.0 | 1.6 | 0.00 | 0.00 | 0.00 | 54 | 1011.0 |
| 20260905093130 | 27 | 338 | 0.0 | 3.2 | 0.00 | 0.00 | 0.00 | 54 | 1011.0 |
| 20260905091826 | 26 | 0 | 0.0 | 0.0 | 0.00 | 0.00 | 0.00 | 55 | 1011.0 |
| 20260905090325 | 26 | 135 | 0.0 | 1.6 | 0.00 | 0.00 | 0.00 | 57 | 1011.0 |
| 20260905084826 | 25 | 22 | 0.0 | 1.6 | 0.00 | 0.00 | 0.00 | 60 | 1011.0 |
| 20260905083326 | 24 | 112 | 0.0 | 0.0 | 0.00 | 0.00 | 0.00 | 60 | 1011.0 |
| 20260905081826 | 23 | 90 | 0.0 | 1.6 | 0.00 | 0.00 | 0.00 | 60 | 1011.0 |
| 20260905080326 | 23 | 180 | 3.2 | 12.9 | 0.00 | 0.00 | 0.00 | 60 | 1011.0 |
| 20260905074825 | 23 | 202 | 0.0 | 8.0 | 0.00 | 0.00 | 0.00 | 61 | 1011.0 |
| 20260905073326 | 24 | 180 | 0.0 | 4.8 | 0.00 | 0.00 | 0.00 | 60 | 1011.0 |
| 20260905071825 | 24 | 202 | 3.2 | 3.2 | 0.00 | 0.00 | 0.00 | 59 | 1011.0 |
| 20260905070325 | 24 | 135 | 0.0 | 4.8 | 0.00 | 0.00 | 0.00 | 59 | 1011.0 |
| 20260905064826 | 23 | 202 | 6.4 | 6.4 | 0.00 | 0.00 | 0.00 | 60 | 1012.0 |
| 20260905063327 | 23 | 158 | 3.2 | 3.2 | 0.00 | 0.00 | 0.00 | 58 | 1012.0 |
| 20260905061826 | 23 | 248 | 3.2 | 4.8 | 0.00 | 0.00 | 0.00 | 61 | 1012.0 |
| 20260905060325 | 22 | 225 | 0.0 | 9.7 | 0.00 | 0.00 | 0.00 | 62 | 1012.0 |
| 20260905054826 | 22 | 90 | 0.0 | 4.8 | 0.00 | 0.00 | 0.00 | 63 | 1012.0 |
| 20260905053325 | 21 | 180 | 3.2 | 3.2 | 0.00 | 0.00 | 0.00 | 69 | 1012.0 |
| 20260905051826 | 20 | 202 | 1.6 | 4.8 | 0.00 | 0.00 | 0.00 | 72 | 1012.0 |
| 20260905050326 | 18 | 225 | 0.0 | 0.0 | 0.00 | 0.00 | 0.00 | 72 | 1012.0 |
| 20260905044842 | 17 | 112 | 0.0 | 0.0 | 0.00 | 0.00 | 0.00 | 74 | 1012.0 |
| 20260905043325 | 17 | 112 | 0.0 | 0.0 | 0.00 | 0.00 | 0.00 | 74 | 1012.0 |
| 20260905041825 | 17 | 202 | 0.0 | 0.0 | 0.00 | 0.00 | 0.00 | 74 | 1012.0 |
| 20260905040326 | 17 | 180 | 0.0 | 0.0 | 0.00 | 0.00 | 0.00 | 75 | 1011.0 |